Location: Home
(42.5358°N, 72.7383°W)
Time: 23:59:13
(UTC-05:00)

Vanguard 3 - Pass Details

Date: 03 December 2021
Orbit: 508 x 3260 km, 33.3° (Epoch: 21 January)

Event Time Altitude Azimuth Distance (km) Brightness Sun altitude
Rises 02:20:19 0° 218° (SW) 6,763 - -51.1°
Reaches altitude 10° 02:25:02 10° 211° (SSW) 5,964 - -50.3°
Exits shadow 02:36:52 35° 179° (S) 4,420 10.6 -48.2°
Maximum altitude 02:42:13 40° 150° (SSE) 4,145 10.6 -47.3°
Drops below altitude 10° 02:57:45 10° 89° (E) 5,452 11.9 -44.5°
Sets 03:01:46 0° 83° (E) 6,160 12.4 -43.7°
